This demonstration page uses our WeatherBlox Daily Observations layout. Learn more.

Left ArrowRight Arrow

34.02893, -84.19858

Hourly Observations for July 14, 2021

Temp ( °F °C ) Dew Point ( °F °C ) Humidity (%) Winds ( mph kmh ) Pressure ( in mb ) Visibility ( mi km ) Precip ( " mm )
12:53 am 00:53 Clear 72 22.2 70 21.1 94 94 Calm 30.24 1024 10 16 0.00 0.00
1:53 am 01:53 Clear 71 21.7 70 21.1 96 96 SSE 3 6 30.24 1024 10 16 0.00 0.00
2:53 am 02:53 Mostly Cloudy 71 21.7 70 21.1 96 96 Calm 30.23 1024 10 16 0.00 0.00
3:53 am 03:53 Mostly Clear 70 21.1 69 20.6 97 97 Calm 30.23 1024 10 16 0.00 0.00
4:53 am 04:53 Clear 70 21.1 68 20 93 93 Calm 30.22 1024 10 16 0.00 0.00
5:53 am 05:53 Clear 69 20.6 68 20 96 96 Calm 30.23 1024 9 14 0.00 0.00
6:53 am 06:53 Sunny 69 20.6 68 20 96 96 E 3 6 30.24 1024 7 11 0.00 0.00
7:53 am 07:53 Sunny 74 23.3 70 21.1 88 88 Calm 30.25 1024 10 16 0.00 0.00
8:53 am 08:53 Sunny 77 25 71 21.7 82 82 S 3 6 30.26 1025 10 16 0.00 0.00
9:53 am 09:53 Sunny 80 26.7 71 21.7 74 74 SSW 6 9 30.26 1025 10 16 0.00 0.00
10:53 am 10:53 Sunny 81 27.2 71 21.7 72 72 Calm 30.25 1024 10 16 0.00 0.00
11:53 am 11:53 Mostly Cloudy 84 28.9 68 20 59 59 Calm 30.24 1024 10 16 0.00 0.00
12:53 pm 12:53 Cloudy 83 28.3 69 20.6 63 63 SW 7 11 30.24 1024 10 16 0.00 0.00
1:53 pm 13:53 Mostly Sunny 83 28.3 72 22.2 70 70 WNW 5 7 30.23 1024 10 16 0.00 0.00
2:53 pm 14:53 Mostly Cloudy 85 29.4 68 20 57 57 NW 7 11 30.20 1023 10 16 0.00 0.00
3:05 pm 15:05 Mostly Cloudy with Nearby Thunderstorms 85 29.4 69 20.6 59 59 WSW 7 11 30.19 1022 10 16 0.00 0.00
3:31 pm 15:31 Mostly Cloudy 82 27.8 71 21.7 69 69 SE 10 17 30.20 1023 10 16 0.00 0.00
3:53 pm 15:53 Cloudy 82 27.8 71 21.7 69 69 SE 5 7 30.20 1023 10 16 0.00 0.00
4:53 pm 16:53 Mostly Cloudy 82 27.8 73 22.8 74 74 VRB 3 6 30.19 1023 10 16 0.00 0.00
5:53 pm 17:53 Mostly Sunny 80 26.7 71 21.7 74 74 E 3 6 30.19 1022 10 16 0.00 0.00
6:53 pm 18:53 Sunny 81 27.2 71 21.7 72 72 Calm 30.16 1021 10 16 0.00 0.00
7:53 pm 19:53 Sunny 81 27.2 71 21.7 72 72 SSE 3 6 30.18 1022 10 16 0.00 0.00
8:53 pm 20:53 Clear 78 25.6 73 22.8 85 85 SSE 3 6 30.17 1022 10 16 0.00 0.00
9:53 pm 21:53 Clear 75 23.9 71 21.7 88 88 Calm 30.18 1022 10 16 0.00 0.00
10:53 pm 22:53 Clear 74 23.3 71 21.7 91 91 Calm 30.18 1022 10 16 0.00 0.00
11:53 pm 23:53 Clear 73 22.8 70 21.1 90 90 Calm 30.19 1022 10 16 0.00 0.00

Powered by AerisWeather